Location: Newark
(54.2500°N, 9.1833°E)
Time: 23:56:27
(UTC+00:00)

Transit 2A - All Passes

Search period start: 12 December 2019 00:00
Search period end: 22 December 2019 00:00
Orbit: 602 x 957 km, 66.7° (Epoch: 12 December)

Date Brightness Start Highest point End Pass type
(mag) Time Alt. Az. Time Alt. Az. Time Alt. Az.
12 Dec - 05:44:49 10° S 05:48:56 31° ESE 05:52:52 10° NE visible
12 Dec - 07:27:26 10° WSW 07:31:56 52° NW 07:36:14 10° NE daylight
12 Dec - 09:12:41 10° WNW 09:15:59 20° NNW 09:19:14 10° NNE daylight
12 Dec - 10:57:46 10° NNW 11:00:41 17° N 11:03:37 10° NE daylight
12 Dec - 12:41:02 10° NNW 12:45:03 34° NE 12:49:10 10° E daylight
12 Dec - 14:24:05 10° NW 14:28:23 55° SW 14:32:52 10° SSE daylight
13 Dec - 05:11:20 10° SSE 05:14:58 23° ESE 05:18:28 10° ENE visible
13 Dec - 06:53:09 10° SW 06:57:44 69° NW 07:02:08 10° NE visible
13 Dec - 08:38:03 10° WNW 08:41:36 22° NNW 08:45:05 10° NNE daylight
13 Dec - 10:23:26 10° NW 10:26:15 16° N 10:29:04 10° NE daylight
13 Dec - 12:06:56 10° NNW 12:10:45 28° NNE 12:14:39 10° E daylight
13 Dec - 13:49:55 10° NW 13:54:18 76° SW 13:58:53 10° SSE daylight
13 Dec - 15:34:31 10° W 15:36:44 14° WSW 15:39:01 10° SW daylight
14 Dec - 04:38:09 10° SSE 04:41:02 16° ESE 04:43:50 10° ENE visible
14 Dec - 06:18:58 10° SW 06:23:36 88° SE 06:28:00 10° NE visible
14 Dec - 08:03:27 10° W 08:07:15 26° NNW 08:10:57 10° NNE daylight
14 Dec - 09:49:00 10° NW 09:51:48 16° N 09:54:36 10° NE daylight
14 Dec - 11:32:49 10° NNW 11:36:25 24° NNE 11:40:03 10° E daylight
14 Dec - 13:15:47 10° NW 13:20:10 80° NE 13:24:46 10° SE daylight
14 Dec - 14:59:40 10° WNW 15:02:50 19° WSW 15:06:06 10° SSW daylight
15 Dec - 04:05:39 10° SE 04:07:09 11° ESE 04:08:37 10° E visible
15 Dec - 05:44:54 10° SSW 05:49:29 65° SE 05:53:51 10° NE visible
15 Dec - 07:28:54 10° W 07:32:56 31° NNW 07:36:51 10° NNE daylight
15 Dec - 09:14:29 10° NW 09:17:21 17° N 09:20:14 10° NE daylight
15 Dec - 10:58:41 10° NNW 11:02:03 21° NNE 11:05:26 10° ENE daylight
15 Dec - 12:41:40 10° NW 12:46:00 60° NE 12:50:31 10° SE daylight
15 Dec - 14:25:10 10° WNW 14:28:52 27° WSW 14:32:45 10° S daylight
16 Dec - 05:10:59 10° SSW 05:15:25 46° ESE 05:19:39 10° NE visible
16 Dec - 06:54:24 10° WSW 06:58:39 38° NW 07:02:46 10° NNE visible
16 Dec - 08:39:54 10° NW 08:42:56 18° NNW 08:45:56 10° NNE daylight
16 Dec - 10:24:30 10° NNW 10:27:39 19° NNE 10:30:49 10° ENE daylight
16 Dec - 12:07:34 10° NW 12:11:48 46° NE 12:16:11 10° ESE daylight
16 Dec - 13:50:49 10° NW 13:54:53 37° WSW 13:59:08 10° S daylight
17 Dec - 04:37:14 10° S 04:41:24 33° ESE 04:45:22 10° NE visible
17 Dec - 06:20:00 10° WSW 06:24:25 49° NW 06:28:40 10° NE visible
17 Dec - 08:05:17 10° WNW 08:08:31 19° NNW 08:11:43 10° NNE daylight
17 Dec - 09:50:16 10° NNW 09:53:13 17° N 09:56:12 10° NE daylight
17 Dec - 11:33:29 10° NNW 11:37:32 36° NE 11:41:45 10° ESE daylight
17 Dec - 13:16:33 10° NW 13:20:50 51° SW 13:25:21 10° SSE daylight
18 Dec - 04:03:42 10° S 04:07:24 24° ESE 04:10:59 10° ENE visible
18 Dec - 05:45:41 10° SW 05:50:13 65° NW 05:54:35 10° NE visible
18 Dec - 07:30:39 10° WNW 07:34:07 22° NNW 07:37:33 10° NNE daylight
18 Dec - 09:15:57 10° NW 09:18:47 17° N 09:21:39 10° NE daylight
18 Dec - 10:59:23 10° NNW 11:03:16 30° NNE 11:07:14 10° E daylight
18 Dec - 12:42:22 10° NW 12:46:46 71° SW 12:51:23 10° SSE daylight
18 Dec - 14:27:10 10° W 14:29:10 13° WSW 14:31:13 10° SW daylight
19 Dec - 03:30:27 10° SSE 03:33:28 17° ESE 03:36:24 10° ENE visible
19 Dec - 05:11:28 10° SW 05:16:04 87° NW 05:20:27 10° NE visible
19 Dec - 06:56:03 10° W 06:59:46 25° NNW 07:03:25 10° NNE visible
19 Dec - 08:41:33 10° NW 08:44:21 16° N 08:47:09 10° NE daylight
19 Dec - 10:25:17 10° NNW 10:28:56 25° NNE 10:32:40 10° E daylight
19 Dec - 12:08:14 10° NW 12:12:38 85° NE 12:17:17 10° SE daylight
19 Dec - 13:52:13 10° WNW 13:55:16 18° WSW 13:58:26 10° SSW daylight
20 Dec - 02:57:45 10° SE 02:59:35 12° ESE 03:01:22 10° E visible
20 Dec - 04:37:23 10° SSW 04:41:57 69° SE 04:46:19 10° NE visible
20 Dec - 06:21:29 10° W 06:25:26 30° NNW 06:29:18 10° NNE visible
20 Dec - 08:07:03 10° NW 08:09:54 17° N 08:12:45 10° NE daylight
20 Dec - 09:51:09 10° NNW 09:54:34 22° NNE 09:58:03 10° ENE daylight
20 Dec - 11:34:07 10° NW 11:38:28 64° NE 11:43:04 10° SE daylight
20 Dec - 13:17:40 10° WNW 13:21:19 25° WSW 13:25:08 10° S daylight
21 Dec - 04:03:27 10° SSW 04:07:52 50° ESE 04:12:07 10° NE visible
21 Dec - 05:46:59 10° WSW 05:51:08 36° NW 05:55:13 10° NNE visible
21 Dec - 07:32:29 10° NW 07:35:28 17° N 07:38:26 10° NNE daylight
21 Dec - 09:16:59 10° NNW 09:20:11 19° NNE 09:23:25 10° ENE daylight
21 Dec - 11:00:01 10° NW 11:04:17 48° NE 11:08:45 10° ESE daylight
21 Dec - 12:43:17 10° NW 12:47:19 35° WSW 12:51:35 10° S daylight
